RH
35 31 30 32 33 37 39 36 35 32 26 22 17 14 17 23 24 26 24 24 19 18 17 19 28 30 30 29 31 30 28 23 20 18 16 14 16 14 15 20 14 16 15
35 32 32 35 36 38 42 40 38 32 25 21 14 12 18 22 25 23 23 23 21 19 15 18 21 25 27 29 29 29 29 22 20 17 13 14 15 17 18 16 15 18 21
37 34 35 37 38 38 41 41 37 28 22 18 15 16 16 19 20 21 21 20 20 18 16 14 17 19 21 21 21 21 21 21 20 16 12 14 18 18 20 20 18 18 21
37 35 38 42 41 39 39 39 35 32 28 20 16 19 21 22 25 26 28 23 20 18 17 16 15 14 14 16 17 18 20 21 18 17 13 14 17 18 22 20 19 18 20
36 38 40 42 42 41 42 40 38 36 34 32 23 20 23 24 26 28 30 28 21 19 17 15 15 15 14 14 14 14 15 14 13 15 14 15 16 17 18 19 17 17 18
36 38 41 45 41 42 43 39 38 38 38 34 31 31 27 25 26 27 28 28 22 20 14 13 13 13 13 12 13 13 11 10 8 8 9 13 14 16 15 14 13 16 16
38 42 47 44 41 42 42 40 40 38 39 37 33 34 33 32 35 32 29 29 21 17 12 12 11 11 11 12 12 12 12 12 11 10 10 11 12 13 13 15 13 12 13
41 44 47 43 42 43 42 40 40 41 41 40 33 32 33 34 38 41 41 37 27 19 18 17 17 17 16 16 17 17 18 18 19 19 19 17 16 16 16 16 14 13 14
40 48 47 45 44 45 41 38 40 42 39 35 30 27 26 29 34 36 37 33 28 26 26 26 25 25 25 23 23 24 25 25 25 25 25 25 25 24 22 23 22 18 16
40 48 48 46 46 45 42 39 38 37 33 31 28 24 22 23 26 26 27 28 29 30 31 31 30 30 30 30 30 29 29 29 29 27 27 29 29 28 27 26 27 24 21
39 43 48 48 48 44 44 42 39 36 33 30 25 26 24 24 24 23 23 26 28 30 31 33 33 34 34 33 34 35 35 34 33 33 33 33 32 32 31 31 30 29 27
43 41 46 50 50 48 47 46 40 35 37 33 29 28 29 28 28 28 28 29 30 31 31 31 32 33 34 36 37 38 37 36 36 35 34 34 33 34 35 35 36 36 37
46 47 48 50 50 49 49 46 42 38 39 37 36 32 33 33 35 35 35 35 35 36 36 38 38 37 36 36 38 39 39 37 35 35 36 35 36 37 39 39 41 39 40
46 51 51 51 51 50 50 47 44 42 41 42 40 36 36 36 37 38 38 39 40 44 44 44 44 44 44 42 37 34 31 31 30 34 35 35 37 38 39 39 41 41 39
42 49 54 54 52 49 50 50 46 45 45 44 43 41 41 40 42 44 45 43 43 43 44 44 42 39 32 29 28 27 28 31 33 34 35 35 35 35 35 38 40 38 39
42 51 55 53 50 48 47 50 48 45 45 44 45 45 44 43 45 49 48 46 46 43 40 38 36 31 29 28 28 29 30 32 32 32 28 26 26 28 31 33 36 40 46
44 50 53 50 46 44 47 48 46 46 46 45 46 46 45 43 47 49 47 46 42 37 33 30 29 30 31 31 30 28 24 22 21 21 20 22 26 28 30 32 36 37 43
42 47 49 45 42 43 46 46 45 46 46 46 47 47 42 46 48 49 44 37 32 30 28 29 31 32 28 23 18 15 14 15 16 18 22 25 27 29 31 34 35 34 31
34 37 41 40 41 44 43 42 44 45 45 44 45 44 45 48 45 38 36 35 32 29 30 30 28 22 19 17 15 15 15 15 18 16 18 21 24 25 26 27 28 29 29
28 31 35 38 40 41 41 43 44 43 45 45 44 44 42 39 38 37 35 32 32 31 29 25 19 18 18 17 16 15 14 14 13 16 17 15 17 17 17 19 20 18 16
29 32 38 38 40 42 41 41 42 44 46 46 43 40 39 38 36 35 35 33 29 24 20 18 18 17 16 16 15 14 13 12 14 12 12 11 11 11 11 12 11 10 10
34 35 38 41 40 41 40 41 42 40 38 36 37 35 36 38 38 35 31 28 24 21 20 19 17 16 16 16 16 15 15 14 16 14 16 14 14 14 12 11 11 12 12
37 39 40 41 41 39 38 37 36 31 30 32 37 40 41 38 34 31 29 26 24 22 19 18 18 17 16 16 17 19 20 20 17 17 14 16 13 15 12 13 13 13 14
38 42 44 43 40 37 36 33 32 33 36 39 42 41 38 36 34 30 27 27 27 23 21 20 19 19 19 19 18 17 19 20 20 21 17 14 15 13 13 14 13 14 14
35 40 40 37 35 34 34 37 39 40 41 42 40 38 37 37 33 30 31 29 27 23 23 22 22 22 21 19 18 19 20 19 18 19 19 16 16 16 14 15 14 12 12
35 39 39 36 36 38 41 42 43 44 42 39 37 36 35 34 36 35 33 31 27 25 25 25 24 23 21 19 20 20 21 20 19 19 17 16 18 18 16 15 14 15 16